When you browse on this site, cookies collect data to enhance your experience and personalize the content and advertising you see.
Visit our Privacy Policy to learn more. By continuing to use the site, you agree to this use of cookies and data.
  • In Romania
  • List of Countries
  • For 7 days
  • Water Temperature
  • Satellite Maps
  • Weather Map
  • Weather Widgets
  • user-avatar
    Login

    Hourly Weather Vozrozhdenie

    Today, 26 March, Tuesday

    Time Temperature Precipitation Wind Pressure Humidity
    00:00 +4°C° 0 mm 2 mps 730 mmHg 66%
    01:00 +3°C° 0 mm 2 mps 730 mmHg 67%
    02:00 +3°C° 0 mm 2 mps 730 mmHg 69%
    03:00 +2°C° 0 mm 3 mps 730 mmHg 72%
    04:00 +1°C° 0 mm 3 mps 730 mmHg 72%
    05:00 +1°C° 0 mm 3 mps 730 mmHg 73%
    06:00 +1°C° 0 mm 3 mps 730 mmHg 74%
    07:00 +1°C° 0 mm 4 mps 730 mmHg 68%
    08:00 +4°C° 0 mm 4 mps 729 mmHg 61%
    09:00 +5°C° 0 mm 5 mps 729 mmHg 55%
    10:00 +6°C° 0 mm 5 mps 729 mmHg 52%
    11:00 +8°C° 0 mm 5 mps 728 mmHg 49%
    12:00 +9°C° 0 mm 5 mps 728 mmHg 46%
    13:00 +10°C° 0 mm 5 mps 728 mmHg 46%
    14:00 +10°C° 0 mm 5 mps 728 mmHg 45%
    15:00 +12°C° 0 mm 5 mps 728 mmHg 44%
    16:00 +10°C° 0 mm 5 mps 728 mmHg 48%
    17:00 +10°C° 0 mm 4 mps 728 mmHg 51%
    18:00 +10°C° 0 mm 4 mps 728 mmHg 55%
    19:00 +7°C° 0 mm 4 mps 728 mmHg 60%
    20:00 +7°C° 0 mm 3 mps 728 mmHg 65%
    21:00 +5°C° 0 mm 3 mps 729 mmHg 70%
    22:00 +4°C° 0 mm 3 mps 728 mmHg 73%
    23:00 +5°C° 0 mm 2 mps 728 mmHg 76%

    Tomorrow, 27 March, Wednesday

    Time Temperature Precipitation Wind Pressure Humidity
    00:00 +4°C° 0 mm 2 mps 728 mmHg 79%
    01:00 +4°C° 0 mm 2 mps 728 mmHg 81%
    02:00 +4°C° 0 mm 1 mps 728 mmHg 82%
    03:00 +4°C° 0 mm 1 mps 728 mmHg 84%
    04:00 +4°C° 0 mm 1 mps 728 mmHg 84%
    05:00 +3°C° 0 mm 1 mps 728 mmHg 84%
    06:00 +2°C° 0 mm 0 mps 728 mmHg 84%
    07:00 +4°C° 0 mm 0 mps 728 mmHg 77%
    08:00 +6°C° 0 mm 0 mps 728 mmHg 70%
    09:00 +8°C° 0 mm 0 mps 728 mmHg 62%
    10:00 +11°C° 0 mm 1 mps 728 mmHg 56%
    11:00 +13°C° 0 mm 2 mps 728 mmHg 49%
    12:00 +14°C° 0 mm 3 mps 728 mmHg 42%
    13:00 +14°C° 0 mm 4 mps 728 mmHg 40%
    14:00 +15°C° 0 mm 4 mps 728 mmHg 38%
    15:00 +15°C° 0 mm 4 mps 728 mmHg 36%
    16:00 +16°C° 0 mm 3 mps 728 mmHg 40%
    17:00 +14°C° 0 mm 3 mps 728 mmHg 45%
    18:00 +14°C° 0 mm 2 mps 729 mmHg 49%
    19:00 +13°C° 0 mm 2 mps 729 mmHg 52%
    20:00 +12°C° 0 mm 2 mps 730 mmHg 55%
    21:00 +12°C° 0 mm 1 mps 730 mmHg 58%
    22:00 +10°C° 0 mm 2 mps 730 mmHg 63%
    23:00 +10°C° 0 mm 2 mps 730 mmHg 68%

    Day after tomorrow, 28 March, Thursday

    Time Temperature Precipitation Wind Pressure Humidity
    00:00 +9°C° 0 mm 3 mps 730 mmHg 73%
    01:00 +9°C° 0 mm 3 mps 731 mmHg 74%
    02:00 +8°C° 0 mm 3 mps 731 mmHg 75%
    03:00 +7°C° 0 mm 4 mps 731 mmHg 76%
    04:00 +8°C° 0 mm 3 mps 731 mmHg 78%
    05:00 +7°C° 0 mm 3 mps 731 mmHg 80%
    06:00 +7°C° 0 mm 2 mps 731 mmHg 82%
    07:00 +7°C° 0 mm 3 mps 732 mmHg 80%
    08:00 +6°C° 0 mm 4 mps 732 mmHg 78%
    09:00 +7°C° 0 mm 4 mps 732 mmHg 75%
    10:00 +7°C° 0.1 mm 5 mps 732 mmHg 70%
    11:00 +7°C° 0.1 mm 5 mps 732 mmHg 65%
    12:00 +7°C° 0.1 mm 5 mps 732 mmHg 60%
    13:00 +7°C° 0.2 mm 5 mps 732 mmHg 59%
    14:00 +7°C° 0.2 mm 6 mps 732 mmHg 58%
    15:00 +7°C° 0.2 mm 6 mps 732 mmHg 57%
    16:00 +6°C° 0.4 mm 5 mps 733 mmHg 59%
    17:00 +6°C° 0.4 mm 5 mps 733 mmHg 62%
    18:00 +6°C° 0.4 mm 4 mps 733 mmHg 64%
    19:00 +5°C° 0.1 mm 4 mps 734 mmHg 67%
    20:00 +5°C° 0.1 mm 3 mps 734 mmHg 70%
    21:00 +4°C° 0.1 mm 3 mps 734 mmHg 73%
    22:00 +4°C° 0.1 mm 3 mps 734 mmHg 74%
    23:00 +4°C° 0.1 mm 3 mps 735 mmHg 75%

    29 March, Friday

    Time Temperature Precipitation Wind Pressure Humidity
    00:00 +3°C° 0.1 mm 3 mps 735 mmHg 76%
    01:00 +3°C° 0.2 mm 3 mps 735 mmHg 77%
    02:00 +3°C° 0.2 mm 3 mps 735 mmHg 78%
    03:00 +2°C° 0.2 mm 3 mps 735 mmHg 79%
    04:00 +2°C° 0.2 mm 3 mps 735 mmHg 81%
    05:00 +2°C° 0.2 mm 3 mps 735 mmHg 82%
    06:00 +1°C° 0.2 mm 3 mps 736 mmHg 84%
    07:00 +2°C° 0.2 mm 3 mps 736 mmHg 82%
    08:00 +2°C° 0.2 mm 3 mps 736 mmHg 79%
    09:00 +2°C° 0.2 mm 3 mps 737 mmHg 77%
    10:00 +3°C° 0.1 mm 3 mps 737 mmHg 71%
    11:00 +3°C° 0.1 mm 3 mps 736 mmHg 65%
    12:00 +4°C° 0.1 mm 3 mps 736 mmHg 59%
    13:00 +5°C° 0 mm 3 mps 736 mmHg 54%
    14:00 +5°C° 0 mm 3 mps 736 mmHg 49%
    15:00 +7°C° 0 mm 2 mps 736 mmHg 45%
    16:00 +6°C° 0 mm 2 mps 736 mmHg 47%
    17:00 +6°C° 0 mm 2 mps 736 mmHg 49%
    18:00 +7°C° 0 mm 1 mps 736 mmHg 51%
    19:00 +6°C° 0 mm 1 mps 737 mmHg 54%
    20:00 +5°C° 0 mm 1 mps 737 mmHg 57%
    21:00 +4°C° 0 mm 1 mps 738 mmHg 60%
    22:00 +4°C° 0 mm 1 mps 737 mmHg 62%
    23:00 +3°C° 0 mm 1 mps 737 mmHg 64%

    30 March, Saturday

    Time Temperature Precipitation Wind Pressure Humidity
    00:00 +3°C° 0 mm 1 mps 737 mmHg 66%
    01:00 +2°C° 0 mm 1 mps 737 mmHg 67%
    02:00 +2°C° 0 mm 1 mps 737 mmHg 68%
    03:00 +2°C° 0 mm 1 mps 737 mmHg 69%
    04:00 +2°C° 0 mm 1 mps 737 mmHg 70%
    05:00 +1°C° 0 mm 1 mps 737 mmHg 70%
    06:00 +1°C° 0 mm 1 mps 737 mmHg 70%
    07:00 +3°C° 0 mm 1 mps 737 mmHg 64%
    08:00 +4°C° 0 mm 1 mps 737 mmHg 58%
    09:00 +6°C° 0 mm 1 mps 737 mmHg 52%
    10:00 +7°C° 0 mm 1 mps 736 mmHg 50%
    11:00 +7°C° 0 mm 2 mps 736 mmHg 47%
    12:00 +8°C° 0 mm 2 mps 735 mmHg 44%
    13:00 +9°C° 0 mm 3 mps 735 mmHg 43%
    14:00 +10°C° 0 mm 3 mps 735 mmHg 42%
    15:00 +10°C° 0 mm 3 mps 734 mmHg 41%
    16:00 +10°C° 0 mm 3 mps 734 mmHg 45%
    17:00 +9°C° 0 mm 3 mps 734 mmHg 49%
    18:00 +8°C° 0 mm 3 mps 734 mmHg 53%
    19:00 +7°C° 0 mm 3 mps 734 mmHg 58%
    20:00 +5°C° 0 mm 3 mps 735 mmHg 64%
    21:00 +4°C° 0 mm 3 mps 735 mmHg 69%
    22:00 +3°C° 0 mm 3 mps 734 mmHg 71%
    23:00 +3°C° 0 mm 3 mps 734 mmHg 73%

    31 March, Sunday

    Time Temperature Precipitation Wind Pressure Humidity
    00:00 +2°C° 0 mm 3 mps 734 mmHg 75%
    01:00 +2°C° 0 mm 3 mps 733 mmHg 76%
    02:00 +2°C° 0 mm 3 mps 733 mmHg 77%
    03:00 +2°C° 0 mm 3 mps 732 mmHg 78%
    04:00 +1°C° 0 mm 3 mps 732 mmHg 79%
    05:00 +1°C° 0 mm 3 mps 731 mmHg 80%
    06:00 +1°C° 0 mm 3 mps 731 mmHg 81%
    07:00 +1°C° 0 mm 4 mps 731 mmHg 75%
    08:00 +4°C° 0 mm 4 mps 730 mmHg 70%
    09:00 +5°C° 0 mm 5 mps 730 mmHg 64%
    10:00 +6°C° 0 mm 5 mps 729 mmHg 63%
    11:00 +7°C° 0 mm 6 mps 729 mmHg 62%
    12:00 +8°C° 0 mm 6 mps 728 mmHg 61%
    13:00 +9°C° 0 mm 7 mps 728 mmHg 59%
    14:00 +10°C° 0 mm 7 mps 727 mmHg 57%
    15:00 +11°C° 0 mm 7 mps 727 mmHg 55%
    16:00 +10°C° 0 mm 6 mps 727 mmHg 59%
    17:00 +9°C° 0 mm 6 mps 726 mmHg 62%
    18:00 +9°C° 0 mm 6 mps 726 mmHg 66%
    19:00 +8°C° 0 mm 5 mps 726 mmHg 70%
    20:00 +7°C° 0 mm 5 mps 726 mmHg 74%
    21:00 +6°C° 0 mm 5 mps 726 mmHg 79%
    22:00 +5°C° 0 mm 4 mps 725 mmHg 80%
    23:00 +5°C° 0 mm 4 mps 724 mmHg 82%
    Show more